Location: ????????
(41.2031°N, 22.5756°E)
Time: 15:43:01
(UTC+00:00)

Okean-O - Pass Details

Date: 01 December 2020
Orbit: 639 x 640 km, 98.2° (Epoch: 20 January)

Event Time Altitude Azimuth Distance (km) Brightness Sun altitude
Rises 16:19:16 0° 139° (SE) 2,932 5.8 -14.3°
Reaches altitude 10° 16:21:40 10° 129° (SE) 2,028 4.9 -14.7°
Maximum altitude 16:25:29 30° 69° (ENE) 1,164 3.4 -15.4°
Drops below altitude 10° 16:29:20 10° 9° (N) 2,041 5.0 -16.1°
Sets 16:31:45 0° 358° (N) 2,955 5.9 -16.6°
